TimeAST,TemperatureF,Dew PointF,Humidity,Sea Level PressureIn,VisibilityMPH,Wind Direction,Wind SpeedMPH,Gust SpeedMPH,PrecipitationIn,Events,Conditions,WindDirDegrees,DateUTC
12:00 AM,19.0,6.4,58,29.65,-9999.0,WNW,11.5,27.6,N/A,,Unknown,300,2013-02-05 04:00:00
1:00 AM,18.1,5.2,57,29.66,-9999.0,WNW,11.5,25.3,N/A,,Unknown,290,2013-02-05 05:00:00
2:00 AM,17,2,38,29.69,,WNW,9.2,,,,,290,2013-02-05 06:00:00
2:00 AM,16.7,2.5,54,29.69,-9999.0,WNW,9.2,18.4,N/A,,Unknown,290,2013-02-05 06:00:00
3:00 AM,15.8,2.8,57,29.72,-9999.0,WNW,11.5,20.7,N/A,,Unknown,300,2013-02-05 07:00:00
4:00 AM,15.1,3.2,59,29.74,-9999.0,WNW,10.4,19.6,N/A,,Unknown,300,2013-02-05 08:00:00
5:00 AM,14.0,2.3,60,29.78,-9999.0,WNW,11.5,21.9,N/A,,Unknown,300,2013-02-05 09:00:00
6:00 AM,12.7,3.2,66,29.81,-9999.0,NW,9.2,21.9,N/A,,Unknown,310,2013-02-05 10:00:00
7:00 AM,12.4,4.1,69,29.84,-9999.0,WNW,8.1,19.6,N/A,,Unknown,300,2013-02-05 11:00:00
8:00 AM,12,3,54,29.88,,WNW,6.9,,,,,300,2013-02-05 12:00:00
8:00 AM,12.0,3.0,67,29.88,-9999.0,WNW,6.9,-,N/A,,Unknown,300,2013-02-05 12:00:00
9:00 AM,13.8,1.8,59,29.91,-9999.0,NW,10.4,18.4,N/A,,Unknown,320,2013-02-05 13:00:00
10:00 AM,16.0,0.1,50,29.94,-9999.0,NW,8.1,20.7,N/A,,Unknown,310,2013-02-05 14:00:00
11:00 AM,16.3,-1.8,45,29.95,-9999.0,WNW,11.5,24.2,N/A,,Unknown,300,2013-02-05 15:00:00
12:00 PM,17.8,0.1,46,29.95,-9999.0,NW,9.2,20.7,N/A,,Unknown,320,2013-02-05 16:00:00
1:00 PM,19.0,0.7,45,29.93,-9999.0,NW,9.2,19.6,N/A,,Unknown,310,2013-02-05 17:00:00
2:00 PM,20,-1,24,29.94,,WNW,6.9,,,,,300,2013-02-05 18:00:00
2:00 PM,20.5,-1.5,38,29.94,-9999.0,WNW,6.9,20.7,N/A,,Unknown,300,2013-02-05 18:00:00
3:00 PM,20.7,-0.9,39,29.95,-9999.0,WNW,9.2,17.3,N/A,,Unknown,290,2013-02-05 19:00:00
4:00 PM,19.9,1.0,44,29.97,-9999.0,WNW,9.2,-,N/A,,Unknown,290,2013-02-05 20:00:00
5:00 PM,17.8,3.9,55,29.99,-9999.0,WNW,5.8,-,N/A,,Unknown,300,2013-02-05 21:00:00
6:00 PM,15.1,5.7,66,30.01,-9999.0,WNW,3.5,-,N/A,,Unknown,300,2013-02-05 22:00:00
7:00 PM,10.4,3.7,74,30.02,-9999.0,NW,1.2,-,N/A,,Unknown,310,2013-02-05 23:00:00
8:00 PM,9,4,73,30.02,,NNE,1.2,,,,,20,2013-02-06 00:00:00
8:00 PM,8.6,4.5,83,30.02,-9999.0,NNE,1.2,-,N/A,,Unknown,20,2013-02-06 00:00:00
9:00 PM,7.0,3.6,86,30.03,-9999.0,North,1.2,-,N/A,,Unknown,10,2013-02-06 01:00:00
10:00 PM,6.8,2.7,83,30.04,-9999.0,SSW,4.6,-,N/A,,Unknown,210,2013-02-06 02:00:00
11:00 PM,6.8,3.2,85,30.04,-9999.0,SSE,2.3,-,N/A,,Unknown,150,2013-02-06 03:00:00